GW3560 Weather Reports


time (UTC)temp
C
wind
direction
speed
KPH
gust
KPH
rain 1hr
cm
rain 24hr
cm
rain mn
cm
humidity
%
barometer
mb
20260504081530 15 286 0.0 6.4 0.00 0.33 0.33 85 1013.3
20260504050004 16 265 1.6 11.3 0.00 0.33 0.33 85 1012.9
20260504044512 16 301 3.2 8.0 0.00 0.33 0.33 85 1013.0
20260504043059 16 316 1.6 11.3 0.00 0.33 0.33 85 1013.0
20260504041533 16 296 4.8 11.3 0.00 0.33 0.33 84 1013.0
20260504040017 16 305 4.8 14.5 0.00 0.33 0.33 84 1012.9
20260504034528 16 266 8.0 16.1 0.00 0.33 0.33 84 1013.0
20260504033009 15 279 4.8 17.7 0.00 0.33 0.33 85 1013.1
20260504031519 15 300 6.4 16.1 0.00 0.33 0.33 86 1013.4
20260504030005 15 301 6.4 19.3 0.00 0.33 0.33 86 1013.7
20260504024516 15 284 3.2 17.7 0.00 0.33 0.33 86 1013.9
20260504023051 15 350 3.2 9.7 0.00 0.33 0.33 87 1014.1
20260504021558 15 269 6.4 16.1 0.00 0.33 0.33 87 1014.2
20260504020043 14 286 1.6 12.9 0.00 0.33 0.33 89 1014.7
20260504014559 14 275 6.4 17.7 0.00 0.33 0.33 90 1015.0
20260504013102 13 233 1.6 14.5 0.00 0.33 0.33 90 1015.2
20260504011503 13 273 1.6 4.8 0.00 0.33 0.33 89 1015.4
20260504010051 14 324 3.2 12.9 0.00 0.33 0.33 89 1015.7
20260504004503 14 258 3.2 12.9 0.00 0.33 0.33 89 1015.7
20260504003045 13 307 1.6 9.7 0.00 0.33 0.33 90 1015.7
20260504001523 13 317 3.2 16.1 0.03 0.33 0.33 91 1015.8
20260504000107 13 285 3.2 12.9 0.05 0.33 0.33 91 1015.8
20260503234502 13 308 0.0 4.8 0.10 0.33 0.33 93 1015.8
20260503233036 12 320 1.6 9.7 0.23 0.33 0.33 93 1016.0
20260503231555 12 34 0.0 1.6 0.33 0.33 0.33 93 1016.1
20260503230041 12 34 0.0 1.6 0.28 0.28 0.28 93 1016.0
20260503224558 12 335 0.0 0.0 0.23 0.23 0.23 92 1016.1
20260503223039 12 329 0.0 1.6 0.13 0.13 0.13 90 1016.1
20260503221557 12 322 0.0 4.8 0.00 0.00 0.00 89 1016.2
20260503220031 12 279 1.6 3.2 0.00 0.00 0.00 87 1016.1
20260503214542 12 350 0.0 3.2 0.00 0.00 0.00 87 1016.0
20260503213029 12 298 0.0 1.6 0.00 0.00 0.00 87 1016.0
20260503211534 12 294 0.0 3.2 0.00 0.00 0.00 86 1015.8
20260503210039 12 308 0.0 1.6 0.00 0.00 0.00 86 1015.6
20260503204621 12 312 0.0 1.6 0.00 0.00 0.00 86 1015.4
20260503203052 12 289 0.0 1.6 0.00 0.00 0.00 86 1015.3
20260503201513 12 14 0.0 1.6 0.00 0.00 0.00 86 1015.1
20260503200055 12 319 0.0 0.0 0.00 0.00 0.00 86 1015.0
20260503194509 12 319 0.0 1.6 0.00 0.00 0.00 87 1015.0
20260503193028 12 332 0.0 0.0 0.00 0.00 0.00 86 1014.8
20260503191603 12 332 0.0 1.6 0.00 0.00 0.00 86 1014.8
20260503190031 12 296 0.0 0.0 0.00 0.00 0.00 86 1014.9
20260503184537 12 296 0.0 0.0 0.00 0.00 0.00 86 1014.9
20260503183035 12 296 0.0 0.0 0.00 0.00 0.00 85 1015.0
20260503181549 12 296 0.0 3.2 0.00 0.00 0.00 84 1014.9
20260503180042 12 303 0.0 3.2 0.00 0.00 0.00 84 1014.7
20260503174556 12 315 0.0 1.6 0.00 0.00 0.00 84 1014.7
20260503173041 12 315 0.0 1.6 0.00 0.00 0.00 84 1014.6
20260503171600 12 310 0.0 1.6 0.00 0.00 0.00 83 1014.7